Location: Gradaro
(45.0833°N, 10.8833°E)
Time: 14:00:57
(UTC+00:00)

Cosmos 1633 Rocket - Pass Details

Date: 29 November 2020
Orbit: 607 x 624 km, 82.5° (Epoch: 24 January)

Event Time Altitude Azimuth Distance (km) Brightness Sun altitude
Rises 05:46:05 0° 182° (S) 2,891 6.8 -8.2°
Reaches altitude 10° 05:48:18 10° 180° (S) 1,989 6.0 -7.8°
Maximum altitude 05:52:42 72° 96° (E) 658 3.4 -7.1°
Drops below altitude 10° 05:57:07 10° 13° (NNE) 2,002 5.6 -6.4°
Sets 05:59:22 0° 11° (N) 2,911 6.4 -6.1°
